CZ-6A DEB, 61174

Orbit data source: Space-Track

CZ-6A DEB, 61174 is space debris in LEO originally from a launch on Tue, 06 Aug 2024 UTC launched from the Taiyaun Space Center, China (TSC). Debris objects in space refer to the collection of defunct objects orbiting the Earth. Examples of debris include non-operational satellites, rocket bodies, and fragments generated from explosions, collisions, or faulty payload assembly.

Loading next visibility...
Identifier
61174, 2024-140RU
Orbit
LEO
Country
Flag of CNCN / PRC
Related business
Manufacturer
SAST
Mission
Spacecraft
Bus & Motor
Unknown
Mass
Unknown
Launch date (UTC)
2024-08-06 (2 years ago)
Launch vehicle
Unknown
Launch site
Taiyaun Space Center, China (TSC)
Object type
Payload
Rocket body
Debris
Shape & HBR
Unknown shape, 0.1 m
Radar Cross Section
Small (<0.1 m²)

Expand to show TLE details & history
Last TLE update: 19 hours ago

TLE from 19 hours ago
0 CZ-6A DEB
1 61174U 24140RU  26118.43861392  .00000524  00000-0  17393-3 0  9991
2 61174  88.9814 277.4273 0069403 180.8534 179.2558 14.35007212 88145
Epoch: 2026-04-28T10:31Z
TLE epoch observation values (Epoch: 2026-04-28T10:31:36.242Z)
Latitude
-0.00003°
Longitude
-96.88763°
Altitude
827.769 km
Speed
7.413 km/s
True Right ascension
18h 29m 42s
True Declination
0° 00' 00"
Sunlit
Object was in daylight at epoch
Visualization orbit readout
Latitude
Unknown
Longitude
Unknown
Altitude
Unknown
Speed
Unknown
Apparent Right ascension
Unknown
Apparent Declination
Unknown
Sunlit
N/A
Visualization observer readout
Local Sidereal Time
12:37:24
Azimuth
Unknown
Elevation
Unknown
Doppler factor
Unknown
Orbital elements
Apogee altitude
821.596 km
Perigee altitude
722.348 km
Semi-major axis
7,150.109 km
Eccentricity
0.00694
Inclination
88.9814°
RAAN
277.4273°
Arg. of periapsis
180.8534°
True anomaly
179.26604°
Mean anomaly
179.2558°
Eccentric anomaly
179.26093°
Mean motion
3.58983 °/min
Orbital period
100.28 mins
BSTAR
0.00017393
Loading maneuver chart data...
Computing Atmospheric mass density...
Loading historical data...
Loading historical data...
Loading historical data...
Loading historical data...
Loading historical data...
Loading historical data...
Loading historical data...

Documentation

Showing up to 5 results
|